Time,TemperatureF,DewpointF,PressureIn,WindDirection,WindDirectionDegrees,WindSpeedMPH,WindSpeedGustMPH,Humidity,HourlyPrecipIn,Conditions,Clouds,dailyrainin,SolarRadiationWatts/m^2,SoftwareType,DateUTC
2013-01-10 00:00:00,18.0,13.7,30.37,SSE,152,6.0,8.0,83,0.00,CLR,BKN,0.00,0.0,WeatherDisplay:10.37,2013-01-10 06:00:00,
2013-01-10 00:05:00,17.8,13.8,30.37,SSE,152,3.5,3.5,84,0.00,CLR,BKN,0.00,0.0,WeatherDisplay:10.37,2013-01-10 06:05:00,
2013-01-10 00:10:00,17.8,13.8,30.37,SSE,152,5.0,7.0,84,0.00,CLR,BKN,0.00,0.0,WeatherDisplay:10.37,2013-01-10 06:10:00,
2013-01-10 00:15:00,17.8,14.1,30.38,SSE,152,7.0,7.0,85,0.00,CLR,BKN,0.00,0.0,WeatherDisplay:10.37,2013-01-10 06:15:00,
2013-01-10 00:20:00,17.8,14.1,30.38,South,172,5.8,5.8,85,0.00,CLR,BKN,0.00,0.0,WeatherDisplay:10.37,2013-01-10 06:20:00,
2013-01-10 00:25:00,17.7,13.7,30.39,South,180,8.1,8.1,84,0.00,CLR,BKN,0.00,0.0,WeatherDisplay:10.37,2013-01-10 06:25:00,
2013-01-10 00:30:00,17.7,13.7,30.39,South,177,10.4,10.4,84,0.00,CLR,BKN,0.00,0.0,WeatherDisplay:10.37,2013-01-10 06:30:00,
2013-01-10 00:35:00,17.5,13.5,30.39,South,174,9.2,9.2,84,0.00,CLR,BKN,0.00,0.0,WeatherDisplay:10.37,2013-01-10 06:35:00,
2013-01-10 00:40:00,17.5,13.8,30.40,South,171,10.4,10.4,85,0.00,CLR,BKN,0.00,0.0,WeatherDisplay:10.37,2013-01-10 06:40:00,
2013-01-10 00:45:00,17.5,14.0,30.40,South,175,8.0,8.0,86,0.00,CLR,BKN,0.00,0.0,WeatherDisplay:10.37,2013-01-10 06:45:00,
2013-01-10 00:50:00,17.5,14.0,30.40,South,175,6.9,6.9,86,0.00,CLR,BKN,0.00,0.0,WeatherDisplay:10.37,2013-01-10 06:50:00,
2013-01-10 00:55:00,17.7,14.5,30.40,SSW,198,9.2,9.2,87,0.00,CLR,BKN,0.00,0.0,WeatherDisplay:10.37,2013-01-10 06:55:00,
2013-01-10 01:01:00,17.8,14.8,30.40,SSW,208,8.1,8.1,88,0.00,CLR,BKN,0.00,0.0,WeatherDisplay:10.37,2013-01-10 07:01:00,
2013-01-10 01:06:00,18.0,15.0,30.40,South,187,5.8,5.8,88,0.00,CLR,BKN,0.00,0.0,WeatherDisplay:10.37,2013-01-10 07:06:00,
2013-01-10 01:11:00,18.1,15.1,30.40,South,181,5.8,5.8,88,0.00,CLR,BKN,0.00,0.0,WeatherDisplay:10.37,2013-01-10 07:11:00,
2013-01-10 01:16:00,18.1,15.1,30.40,South,177,5.8,5.8,88,0.00,CLR,BKN,0.00,0.0,WeatherDisplay:10.37,2013-01-10 07:16:00,
2013-01-10 01:21:00,18.3,15.3,30.39,South,171,6.9,6.9,88,0.00,CLR,BKN,0.00,0.0,WeatherDisplay:10.37,2013-01-10 07:21:00,
2013-01-10 01:26:00,18.4,15.4,30.39,South,171,6.9,6.9,88,0.00,CLR,BKN,0.00,0.0,WeatherDisplay:10.37,2013-01-10 07:26:00,
2013-01-10 01:31:00,18.4,15.4,30.39,South,180,6.0,6.0,88,0.00,CLR,BKN,0.00,0.0,WeatherDisplay:10.37,2013-01-10 07:31:00,
2013-01-10 01:37:00,18.4,15.4,30.40,South,180,4.6,4.6,88,0.00,CLR,BKN,0.00,0.0,WeatherDisplay:10.37,2013-01-10 07:37:00,
2013-01-10 01:42:00,18.6,15.6,30.40,South,182,5.8,5.8,88,0.00,CLR,BKN,0.00,0.0,WeatherDisplay:10.37,2013-01-10 07:42:00,
2013-01-10 01:47:00,18.6,15.6,30.40,South,176,5.8,5.8,88,0.00,CLR,BKN,0.00,0.0,WeatherDisplay:10.37,2013-01-10 07:47:00,
2013-01-10 01:52:00,18.6,15.6,30.41,South,181,9.2,9.2,88,0.00,CLR,BKN,0.00,0.0,WeatherDisplay:10.37,2013-01-10 07:52:00,
2013-01-10 01:57:00,18.6,15.4,30.41,South,185,10.4,10.4,87,0.00,CLR,BKN,0.00,0.0,WeatherDisplay:10.37,2013-01-10 07:57:00,
2013-01-10 02:02:00,18.6,15.6,30.41,SSW,196,12.7,12.7,88,0.00,CLR,BKN,0.00,0.0,WeatherDisplay:10.37,2013-01-10 08:02:00,
2013-01-10 02:07:00,18.6,15.6,30.42,South,191,11.0,11.0,88,0.00,CLR,BKN,0.00,0.0,WeatherDisplay:10.37,2013-01-10 08:07:00,
2013-01-10 02:12:00,18.8,15.8,30.42,South,180,11.5,11.5,88,0.00,CLR,BKN,0.00,0.0,WeatherDisplay:10.37,2013-01-10 08:12:00,
2013-01-10 02:18:00,18.9,15.9,30.42,South,181,10.4,10.4,88,0.00,CLR,BKN,0.00,0.0,WeatherDisplay:10.37,2013-01-10 08:18:00,
2013-01-10 02:23:00,19.1,16.4,30.42,SSW,195,10.4,10.4,89,0.00,CLR,BKN,0.00,0.0,WeatherDisplay:10.37,2013-01-10 08:23:00,
2013-01-10 02:28:00,19.2,16.5,30.42,SSW,194,11.5,11.5,89,0.00,CLR,BKN,0.00,0.0,WeatherDisplay:10.37,2013-01-10 08:28:00,
2013-01-10 02:33:00,19.4,16.7,30.43,South,189,11.5,11.5,89,0.00,CLR,BKN,0.00,0.0,WeatherDisplay:10.37,2013-01-10 08:33:00,
2013-01-10 02:38:00,19.4,16.4,30.43,SSW,194,11.0,11.0,88,0.00,CLR,BKN,0.00,0.0,WeatherDisplay:10.37,2013-01-10 08:38:00,
2013-01-10 02:43:00,19.5,16.5,30.42,South,185,11.5,11.5,88,0.00,CLR,BKN,0.00,0.0,WeatherDisplay:10.37,2013-01-10 08:43:00,
2013-01-10 02:49:00,19.7,16.7,30.42,South,181,11.5,11.5,88,0.00,CLR,BKN,0.00,0.0,WeatherDisplay:10.37,2013-01-10 08:49:00,
2013-01-10 02:54:00,19.7,16.7,30.42,South,185,10.4,10.4,88,0.00,CLR,BKN,0.00,0.0,WeatherDisplay:10.37,2013-01-10 08:54:00,
2013-01-10 02:59:00,19.9,16.9,30.42,SSW,200,11.5,11.5,88,0.00,CLR,BKN,0.00,0.0,WeatherDisplay:10.37,2013-01-10 08:59:00,
2013-01-10 03:04:00,19.9,16.9,30.42,South,182,11.5,11.5,88,0.00,CLR,BKN,0.00,0.0,WeatherDisplay:10.37,2013-01-10 09:04:00,
2013-01-10 03:09:00,20.0,17.0,30.42,South,187,11.5,11.5,88,0.00,CLR,BKN,0.00,0.0,WeatherDisplay:10.37,2013-01-10 09:09:00,
2013-01-10 03:14:00,20.0,17.0,30.41,South,178,12.0,12.0,88,0.00,CLR,BKN,0.00,0.0,WeatherDisplay:10.37,2013-01-10 09:14:00,
2013-01-10 03:19:00,20.2,17.2,30.41,SSW,196,13.8,13.8,88,0.00,CLR,BKN,0.00,0.0,WeatherDisplay:10.37,2013-01-10 09:19:00,
2013-01-10 03:25:00,20.3,17.3,30.41,South,186,15.0,15.0,88,0.00,CLR,BKN,0.00,0.0,WeatherDisplay:10.37,2013-01-10 09:25:00,
2013-01-10 03:30:00,20.5,17.5,30.41,South,184,10.0,15.0,88,0.00,CLR,BKN,0.00,0.0,WeatherDisplay:10.37,2013-01-10 09:30:00,
2013-01-10 03:35:00,20.6,17.6,30.41,South,178,11.5,11.5,88,0.00,CLR,BKN,0.00,0.0,WeatherDisplay:10.37,2013-01-10 09:35:00,
2013-01-10 03:40:00,20.8,17.8,30.42,South,180,8.0,13.0,88,0.00,CLR,BKN,0.00,0.0,WeatherDisplay:10.37,2013-01-10 09:40:00,
2013-01-10 03:45:00,21.0,18.0,30.41,South,186,11.5,11.5,88,0.00,CLR,BKN,0.00,0.0,WeatherDisplay:10.37,2013-01-10 09:45:00,
2013-01-10 03:50:00,21.1,18.1,30.41,South,179,10.4,10.4,88,0.00,CLR,BKN,0.00,0.0,WeatherDisplay:10.37,2013-01-10 09:50:00,
2013-01-10 03:55:00,21.3,18.3,30.41,South,179,11.5,11.5,88,0.00,CLR,BKN,0.00,0.0,WeatherDisplay:10.37,2013-01-10 09:55:00,
2013-01-10 04:00:00,21.4,18.1,30.41,South,172,9.2,9.2,87,0.00,CLR,BKN,0.00,0.0,WeatherDisplay:10.37,2013-01-10 10:00:00,
2013-01-10 04:05:00,21.4,18.1,30.41,SSE,168,11.5,11.5,87,0.00,CLR,BKN,0.00,0.0,WeatherDisplay:10.37,2013-01-10 10:05:00,
2013-01-10 04:10:00,21.6,18.1,30.40,South,179,11.5,11.5,86,0.00,CLR,BKN,0.00,0.0,WeatherDisplay:10.37,2013-01-10 10:10:00,
2013-01-10 04:15:00,21.6,18.1,30.39,South,185,11.5,11.5,86,0.00,CLR,BKN,0.00,0.0,WeatherDisplay:10.37,2013-01-10 10:15:00,
2013-01-10 04:21:00,21.8,18.0,30.39,South,189,12.7,12.7,85,0.00,CLR,BKN,0.00,0.0,WeatherDisplay:10.37,2013-01-10 10:21:00,
2013-01-10 04:26:00,21.8,18.0,30.40,SSW,196,10.4,10.4,85,0.00,CLR,BKN,0.00,0.0,WeatherDisplay:10.37,2013-01-10 10:26:00,
2013-01-10 04:31:00,21.9,17.8,30.40,SSW,199,10.4,10.4,84,0.00,CLR,BKN,0.00,0.0,WeatherDisplay:10.37,2013-01-10 10:31:00,
2013-01-10 04:36:00,21.9,17.8,30.40,SW,215,11.5,11.5,84,0.00,CLR,BKN,0.00,0.0,WeatherDisplay:10.37,2013-01-10 10:36:00,
2013-01-10 04:41:00,22.1,18.0,30.40,SSW,212,12.0,12.0,84,0.00,CLR,BKN,0.00,0.0,WeatherDisplay:10.37,2013-01-10 10:41:00,
2013-01-10 04:46:00,22.1,18.0,30.40,South,178,13.8,13.8,84,0.00,CLR,BKN,0.00,0.0,WeatherDisplay:10.37,2013-01-10 10:46:00,
2013-01-10 04:51:00,22.2,17.8,30.39,SSW,200,10.4,10.4,83,0.00,CLR,BKN,0.00,0.0,WeatherDisplay:10.37,2013-01-10 10:51:00,
2013-01-10 04:56:00,22.4,18.0,30.40,South,185,12.7,12.7,83,0.00,CLR,BKN,0.00,0.0,WeatherDisplay:10.37,2013-01-10 10:56:00,
2013-01-10 05:02:00,22.7,18.0,30.39,SSW,206,13.8,13.8,82,0.00,CLR,BKN,0.00,0.0,WeatherDisplay:10.37,2013-01-10 11:02:00,
2013-01-10 05:07:00,22.9,17.9,30.39,SSW,193,13.8,13.8,81,0.00,CLR,BKN,0.00,0.0,WeatherDisplay:10.37,2013-01-10 11:07:00,
2013-01-10 05:12:00,23.0,18.0,30.39,South,175,11.5,11.5,81,0.00,CLR,BKN,0.00,0.0,WeatherDisplay:10.37,2013-01-10 11:12:00,
2013-01-10 05:17:00,23.0,17.7,30.38,SSW,193,10.4,10.4,80,0.00,CLR,BKN,0.00,0.0,WeatherDisplay:10.37,2013-01-10 11:17:00,
2013-01-10 05:22:00,23.2,17.9,30.38,South,174,15.0,15.0,80,0.00,CLR,BKN,0.00,0.0,WeatherDisplay:10.37,2013-01-10 11:22:00,
2013-01-10 05:27:00,23.2,17.9,30.38,South,182,11.5,11.5,80,0.00,CLR,BKN,0.00,0.0,WeatherDisplay:10.37,2013-01-10 11:27:00,
2013-01-10 05:32:00,23.2,17.7,30.37,South,176,16.1,16.1,79,0.00,CLR,BKN,0.00,0.0,WeatherDisplay:10.37,2013-01-10 11:32:00,
2013-01-10 05:38:00,23.2,17.7,30.38,South,184,11.5,11.5,79,0.00,CLR,BKN,0.00,0.0,WeatherDisplay:10.37,2013-01-10 11:38:00,
2013-01-10 05:43:00,23.3,17.5,30.37,South,171,12.7,12.7,78,0.00,CLR,BKN,0.00,0.0,WeatherDisplay:10.37,2013-01-10 11:43:00,
2013-01-10 05:48:00,23.3,17.5,30.37,SSE,165,11.5,11.5,78,0.00,CLR,BKN,0.00,0.0,WeatherDisplay:10.37,2013-01-10 11:48:00,
2013-01-10 05:53:00,23.3,17.2,30.37,South,183,13.8,13.8,77,0.00,CLR,BKN,0.00,0.0,WeatherDisplay:10.37,2013-01-10 11:53:00,
2013-01-10 05:58:00,23.3,17.2,30.37,South,187,11.5,11.5,77,0.00,CLR,BKN,0.00,0.0,WeatherDisplay:10.37,2013-01-10 11:58:00,
2013-01-10 06:03:00,23.3,17.2,30.37,SSW,193,10.4,10.4,77,0.00,CLR,BKN,0.00,0.0,WeatherDisplay:10.37,2013-01-10 12:03:00,
2013-01-10 06:08:00,23.3,17.2,30.37,South,173,12.0,12.0,77,0.00,CLR,BKN,0.00,0.0,WeatherDisplay:10.37,2013-01-10 12:08:00,
2013-01-10 06:13:00,23.3,17.2,30.37,SSW,192,9.2,9.2,77,0.00,CLR,BKN,0.00,0.0,WeatherDisplay:10.37,2013-01-10 12:13:00,
2013-01-10 06:19:00,23.3,17.2,30.37,South,183,11.5,11.5,77,0.00,CLR,BKN,0.00,0.0,WeatherDisplay:10.37,2013-01-10 12:19:00,
2013-01-10 06:24:00,23.2,17.1,30.37,SSE,168,9.2,9.2,77,0.00,CLR,BKN,0.00,0.0,WeatherDisplay:10.37,2013-01-10 12:24:00,
2013-01-10 06:29:00,23.2,17.1,30.37,South,187,9.2,9.2,77,0.00,CLR,BKN,0.00,0.0,WeatherDisplay:10.37,2013-01-10 12:29:00,
2013-01-10 06:34:00,23.2,17.1,30.37,South,181,11.5,11.5,77,0.00,CLR,BKN,0.00,0.0,WeatherDisplay:10.37,2013-01-10 12:34:00,
2013-01-10 06:39:00,23.2,17.1,30.37,South,179,10.4,10.4,77,0.00,CLR,BKN,0.00,0.0,WeatherDisplay:10.37,2013-01-10 12:39:00,
2013-01-10 06:44:00,23.2,17.1,30.37,South,187,11.5,11.5,77,0.00,CLR,BKN,0.00,0.0,WeatherDisplay:10.37,2013-01-10 12:44:00,
2013-01-10 06:49:00,23.2,17.1,30.36,South,171,10.4,10.4,77,0.00,CLR,BKN,0.00,0.0,WeatherDisplay:10.37,2013-01-10 12:49:00,
2013-01-10 06:55:00,23.2,16.8,30.36,SSE,167,8.1,8.1,76,0.00,CLR,BKN,0.00,0.0,WeatherDisplay:10.37,2013-01-10 12:55:00,
2013-01-10 07:00:00,23.0,16.6,30.36,SW,216,12.7,12.7,76,0.00,CLR,BKN,0.00,0.0,WeatherDisplay:10.37,2013-01-10 13:00:00,
2013-01-10 07:05:00,23.0,16.6,30.36,South,187,11.5,11.5,76,0.00,CLR,BKN,0.00,0.0,WeatherDisplay:10.37,2013-01-10 13:05:00,
2013-01-10 07:10:00,23.2,16.8,30.36,South,191,11.5,11.5,76,0.00,CLR,BKN,0.00,0.0,WeatherDisplay:10.37,2013-01-10 13:10:00,
2013-01-10 07:15:00,23.2,16.8,30.36,SSW,198,11.5,11.5,76,0.00,CLR,BKN,0.00,0.0,WeatherDisplay:10.37,2013-01-10 13:15:00,
2013-01-10 07:20:00,23.2,16.8,30.37,South,182,10.0,10.0,76,0.00,CLR,BKN,0.00,0.0,WeatherDisplay:10.37,2013-01-10 13:20:00,
2013-01-10 07:25:00,23.3,16.9,30.37,SSW,201,9.2,9.2,76,0.00,CLR,BKN,0.00,0.0,WeatherDisplay:10.37,2013-01-10 13:25:00,
2013-01-10 07:30:00,23.3,16.9,30.37,SSW,194,8.1,8.1,76,0.00,CLR,BKN,0.00,0.0,WeatherDisplay:10.37,2013-01-10 13:30:00,
2013-01-10 07:36:00,23.5,16.7,30.37,South,183,8.1,8.1,75,0.00,CLR,BKN,0.00,0.0,WeatherDisplay:10.37,2013-01-10 13:36:00,
2013-01-10 07:41:00,23.5,16.7,30.36,South,189,10.4,10.4,75,0.00,CLR,BKN,0.00,0.0,WeatherDisplay:10.37,2013-01-10 13:41:00,
2013-01-10 07:46:00,23.6,16.8,30.36,SSW,204,8.1,8.1,75,0.00,CLR,BKN,0.00,0.0,WeatherDisplay:10.37,2013-01-10 13:46:00,
2013-01-10 07:51:00,23.6,16.5,30.37,South,190,9.2,9.2,74,0.00,CLR,BKN,0.00,0.0,WeatherDisplay:10.37,2013-01-10 13:51:00,
2013-01-10 07:56:00,23.8,16.7,30.37,SSW,209,9.2,9.2,74,0.00,CLR,BKN,0.00,0.0,WeatherDisplay:10.37,2013-01-10 13:56:00,
2013-01-10 08:01:00,23.8,16.7,30.36,SSW,200,10.0,10.0,74,0.00,CLR,BKN,0.00,0.0,WeatherDisplay:10.37,2013-01-10 14:01:00,
2013-01-10 08:06:00,23.8,16.7,30.36,South,185,8.1,8.1,74,0.00,CLR,BKN,0.00,0.0,WeatherDisplay:10.37,2013-01-10 14:06:00,
2013-01-10 08:12:00,23.8,16.7,30.36,SSW,204,11.5,11.5,74,0.00,CLR,BKN,0.00,0.0,WeatherDisplay:10.37,2013-01-10 14:12:00,
2013-01-10 08:17:00,23.9,16.5,30.36,SSW,206,10.4,10.4,73,0.00,CLR,BKN,0.00,0.0,WeatherDisplay:10.37,2013-01-10 14:17:00,
2013-01-10 08:22:00,24.1,16.7,30.36,South,190,12.0,12.0,73,0.00,CLR,BKN,0.00,0.0,WeatherDisplay:10.37,2013-01-10 14:22:00,
2013-01-10 08:27:00,24.1,16.7,30.36,South,179,9.2,9.2,73,0.00,CLR,BKN,0.00,0.0,WeatherDisplay:10.37,2013-01-10 14:27:00,
2013-01-10 08:32:00,24.2,16.8,30.36,SSW,202,10.4,10.4,73,0.00,CLR,BKN,0.00,0.0,WeatherDisplay:10.37,2013-01-10 14:32:00,
2013-01-10 08:37:00,24.4,17.0,30.36,SSW,202,7.0,7.0,73,0.00,CLR,BKN,0.00,0.0,WeatherDisplay:10.37,2013-01-10 14:37:00,
2013-01-10 08:42:00,24.8,17.1,30.36,SSW,197,12.0,12.0,72,0.00,CLR,BKN,0.00,0.0,WeatherDisplay:10.37,2013-01-10 14:42:00,
2013-01-10 08:47:00,25.1,17.0,30.36,South,185,11.5,11.5,71,0.00,CLR,BKN,0.00,0.0,WeatherDisplay:10.37,2013-01-10 14:47:00,
2013-01-10 08:53:00,25.4,17.0,30.36,SSE,165,11.5,11.5,70,0.00,CLR,BKN,0.00,0.0,WeatherDisplay:10.37,2013-01-10 14:53:00,
2013-01-10 08:58:00,25.8,17.4,30.35,SSW,192,10.4,10.4,70,0.00,CLR,BKN,0.00,0.0,WeatherDisplay:10.37,2013-01-10 14:58:00,
2013-01-10 09:03:00,26.3,17.2,30.35,South,187,9.2,9.2,68,0.00,OVC,BKN,0.00,0.0,WeatherDisplay:10.37,2013-01-10 15:03:00,
2013-01-10 09:08:00,26.7,17.6,30.35,South,179,11.5,11.5,68,0.00,OVC,BKN,0.00,0.0,WeatherDisplay:10.37,2013-01-10 15:08:00,
2013-01-10 09:13:00,27.0,17.5,30.35,SSE,166,13.8,13.8,67,0.00,OVC,BKN,0.00,0.0,WeatherDisplay:10.37,2013-01-10 15:13:00,
2013-01-10 09:18:00,27.6,17.0,30.35,South,183,19.6,19.6,64,0.00,OVC,BKN,0.00,0.0,WeatherDisplay:10.37,2013-01-10 15:18:00,
2013-01-10 09:23:00,28.1,17.5,30.35,South,183,11.5,11.5,64,0.00,OVC,BKN,0.00,0.0,WeatherDisplay:10.37,2013-01-10 15:23:00,
2013-01-10 09:29:00,28.7,17.7,30.35,South,175,19.6,19.6,63,0.00,OVC,BKN,0.00,0.0,WeatherDisplay:10.37,2013-01-10 15:29:00,
2013-01-10 09:34:00,29.3,17.5,30.35,South,191,12.7,12.7,61,0.00,OVC,BKN,0.00,0.0,WeatherDisplay:10.37,2013-01-10 15:34:00,
2013-01-10 09:39:00,30.0,17.4,30.34,SSW,206,16.1,16.1,59,0.00,OVC,BKN,0.00,0.0,WeatherDisplay:10.37,2013-01-10 15:39:00,
2013-01-10 09:44:00,30.6,18.0,30.34,SSE,156,11.5,11.5,59,0.00,OVC,BKN,0.00,0.0,WeatherDisplay:10.37,2013-01-10 15:44:00,
2013-01-10 09:49:00,31.0,17.9,30.34,SSW,198,17.3,17.3,58,0.00,OVC,BKN,0.00,0.0,WeatherDisplay:10.37,2013-01-10 15:49:00,
2013-01-10 09:54:00,31.6,17.7,30.34,South,178,15.0,15.0,56,0.00,OVC,BKN,0.00,0.0,WeatherDisplay:10.37,2013-01-10 15:54:00,
2013-01-10 09:59:00,32.1,18.2,30.34,WSW,244,13.8,13.8,56,0.00,OVC,BKN,0.00,0.0,WeatherDisplay:10.37,2013-01-10 15:59:00,
2013-01-10 10:04:00,32.7,18.3,30.34,South,183,16.0,16.0,55,0.00,OVC,BKN,0.00,0.0,WeatherDisplay:10.37,2013-01-10 16:04:00,
2013-01-10 10:10:00,32.9,17.6,30.34,SSW,196,9.0,17.0,53,0.00,OVC,BKN,0.00,0.0,WeatherDisplay:10.37,2013-01-10 16:10:00,
2013-01-10 10:15:00,33.4,17.6,30.33,South,182,19.6,19.6,52,0.00,OVC,BKN,0.00,0.0,WeatherDisplay:10.37,2013-01-10 16:15:00,
2013-01-10 10:20:00,33.7,17.0,30.33,South,188,16.1,16.1,50,0.00,OVC,BKN,0.00,0.0,WeatherDisplay:10.37,2013-01-10 16:20:00,
2013-01-10 10:25:00,34.3,17.6,30.33,SW,219,13.8,13.8,50,0.00,OVC,BKN,0.00,0.0,WeatherDisplay:10.37,2013-01-10 16:25:00,
2013-01-10 10:30:00,34.7,17.5,30.33,SSE,166,25.3,25.3,49,0.00,OVC,BKN,0.00,0.0,WeatherDisplay:10.37,2013-01-10 16:30:00,
2013-01-10 10:35:00,35.6,16.8,30.33,SSW,196,23.0,23.0,46,0.00,OVC,BKN,0.00,0.0,WeatherDisplay:10.37,2013-01-10 16:35:00,
2013-01-10 10:40:00,36.6,16.7,30.33,South,185,23.0,23.0,44,0.00,OVC,BKN,0.00,0.0,WeatherDisplay:10.37,2013-01-10 16:40:00,
2013-01-10 10:46:00,37.2,17.8,30.33,SW,215,19.6,19.6,45,0.00,OVC,BKN,0.00,0.0,WeatherDisplay:10.37,2013-01-10 16:46:00,
2013-01-10 10:51:00,37.8,17.3,30.33,SW,223,16.1,16.1,43,0.00,OVC,BKN,0.00,0.0,WeatherDisplay:10.37,2013-01-10 16:51:00,
2013-01-10 10:56:00,38.0,17.5,30.33,SW,224,25.3,25.3,43,0.00,OVC,BKN,0.00,0.0,WeatherDisplay:10.37,2013-01-10 16:56:00,
2013-01-10 11:01:00,38.0,16.9,30.32,SSW,205,18.4,18.4,42,0.00,OVC,BKN,0.00,0.0,WeatherDisplay:10.37,2013-01-10 17:01:00,
2013-01-10 11:06:00,37.9,15.7,30.32,SSW,192,20.7,20.7,40,0.00,OVC,BKN,0.00,0.0,WeatherDisplay:10.37,2013-01-10 17:06:00,
2013-01-10 11:11:00,37.5,19.1,30.31,South,175,17.3,17.3,47,0.00,OVC,BKN,0.00,0.0,WeatherDisplay:10.37,2013-01-10 17:11:00,
2013-01-10 11:16:00,37.2,17.3,30.30,SW,227,19.6,19.6,44,0.00,OVC,BKN,0.00,0.0,WeatherDisplay:10.37,2013-01-10 17:16:00,
2013-01-10 11:21:00,37.3,18.4,30.30,SW,235,19.6,19.6,46,0.00,OVC,BKN,0.00,0.0,WeatherDisplay:10.37,2013-01-10 17:21:00,
2013-01-10 11:27:00,37.3,17.4,30.30,SSW,205,18.4,18.4,44,0.00,OVC,BKN,0.00,0.0,WeatherDisplay:10.37,2013-01-10 17:27:00,
2013-01-10 11:32:00,37.8,17.3,30.29,SW,219,16.1,16.1,43,0.00,OVC,BKN,0.00,0.0,WeatherDisplay:10.37,2013-01-10 17:32:00,
2013-01-10 11:37:00,38.0,16.9,30.29,South,187,19.6,19.6,42,0.00,OVC,BKN,0.00,0.0,WeatherDisplay:10.37,2013-01-10 17:37:00,
2013-01-10 11:42:00,38.3,16.1,30.28,SW,215,15.0,15.0,40,0.00,OVC,BKN,0.00,0.0,WeatherDisplay:10.37,2013-01-10 17:42:00,
2013-01-10 11:47:00,38.8,15.9,30.28,South,187,17.3,17.3,39,0.00,OVC,BKN,0.00,0.0,WeatherDisplay:10.37,2013-01-10 17:47:00,
2013-01-10 11:52:00,38.9,16.0,30.27,South,173,13.8,13.8,39,0.00,OVC,BKN,0.00,0.0,WeatherDisplay:10.37,2013-01-10 17:52:00,
2013-01-10 11:57:00,39.5,15.3,30.27,South,190,20.7,20.7,37,0.00,OVC,BKN,0.00,0.0,WeatherDisplay:10.37,2013-01-10 17:57:00,
2013-01-10 12:03:00,39.2,14.4,30.27,SSE,154,19.6,19.6,36,0.00,OVC,BKN,0.00,0.0,WeatherDisplay:10.37,2013-01-10 18:03:00,
2013-01-10 12:08:00,39.5,13.4,30.26,South,173,20.7,20.7,34,0.00,OVC,BKN,0.00,0.0,WeatherDisplay:10.37,2013-01-10 18:08:00,
2013-01-10 12:13:00,39.6,16.0,30.26,South,182,20.7,20.7,38,0.00,OVC,BKN,0.00,0.0,WeatherDisplay:10.37,2013-01-10 18:13:00,
2013-01-10 12:18:00,39.3,13.9,30.25,SSW,199,19.6,19.6,35,0.00,OVC,BKN,0.00,0.0,WeatherDisplay:10.37,2013-01-10 18:18:00,
2013-01-10 12:23:00,39.6,13.5,30.25,South,190,20.0,20.0,34,0.00,OVC,BKN,0.00,0.0,WeatherDisplay:10.37,2013-01-10 18:23:00,
2013-01-10 12:28:00,39.8,13.7,30.24,SSW,202,19.6,19.6,34,0.00,OVC,BKN,0.00,0.0,WeatherDisplay:10.37,2013-01-10 18:28:00,
2013-01-10 12:33:00,39.9,14.4,30.24,SW,229,17.3,17.3,35,0.00,OVC,BKN,0.00,0.0,WeatherDisplay:10.37,2013-01-10 18:33:00,
2013-01-10 12:38:00,39.6,14.2,30.24,SSW,204,19.0,19.0,35,0.00,OVC,BKN,0.00,0.0,WeatherDisplay:10.37,2013-01-10 18:38:00,
2013-01-10 12:44:00,39.9,14.4,30.23,South,186,17.3,17.3,35,0.00,OVC,BKN,0.00,0.0,WeatherDisplay:10.37,2013-01-10 18:44:00,
2013-01-10 12:49:00,39.9,15.1,30.23,South,183,16.0,16.0,36,0.00,OVC,BKN,0.00,0.0,WeatherDisplay:10.37,2013-01-10 18:49:00,
2013-01-10 12:54:00,39.9,14.4,30.22,South,190,19.6,19.6,35,0.00,OVC,BKN,0.00,0.0,WeatherDisplay:10.37,2013-01-10 18:54:00,
2013-01-10 12:59:00,40.1,11.8,30.22,SSE,163,21.9,21.9,31,0.00,OVC,BKN,0.00,0.0,WeatherDisplay:10.37,2013-01-10 18:59:00,
2013-01-10 13:04:00,40.3,14.1,30.22,South,170,11.5,11.5,34,0.00,OVC,BKN,0.00,0.0,WeatherDisplay:10.37,2013-01-10 19:04:00,
2013-01-10 13:09:00,40.5,13.6,30.22,South,171,11.5,11.5,33,0.00,OVC,BKN,0.00,0.0,WeatherDisplay:10.37,2013-01-10 19:09:00,
2013-01-10 13:14:00,40.8,14.6,30.21,SSW,194,10.4,10.4,34,0.00,OVC,BKN,0.00,0.0,WeatherDisplay:10.37,2013-01-10 19:14:00,
2013-01-10 13:20:00,40.8,15.2,30.21,SSW,199,15.0,15.0,35,0.00,OVC,BKN,0.00,0.0,WeatherDisplay:10.37,2013-01-10 19:20:00,
2013-01-10 13:25:00,40.9,13.3,30.20,South,190,15.0,15.0,32,0.00,OVC,BKN,0.00,0.0,WeatherDisplay:10.37,2013-01-10 19:25:00,
2013-01-10 13:30:00,41.2,13.5,30.20,SSE,159,19.6,19.6,32,0.00,OVC,BKN,0.00,0.0,WeatherDisplay:10.37,2013-01-10 19:30:00,
2013-01-10 13:35:00,41.3,11.4,30.20,SSW,195,17.3,17.3,29,0.00,OVC,BKN,0.00,0.0,WeatherDisplay:10.37,2013-01-10 19:35:00,
2013-01-10 13:41:00,41.6,10.0,30.19,South,181,18.4,18.4,27,0.00,OVC,BKN,0.00,0.0,WeatherDisplay:10.37,2013-01-10 19:41:00,
2013-01-10 13:46:00,41.8,12.6,30.18,South,175,22.0,22.0,30,0.00,OVC,BKN,0.00,0.0,WeatherDisplay:10.37,2013-01-10 19:46:00,
2013-01-10 13:52:00,42.1,10.5,30.18,SSE,167,13.8,13.8,27,0.00,OVC,BKN,0.00,0.0,WeatherDisplay:10.37,2013-01-10 19:52:00,
2013-01-10 13:57:00,42.2,10.6,30.18,South,178,12.7,12.7,27,0.00,OVC,BKN,0.00,0.0,WeatherDisplay:10.37,2013-01-10 19:57:00,
2013-01-10 14:02:00,42.2,12.9,30.18,ESE,113,19.6,19.6,30,0.00,OVC,BKN,0.00,0.0,WeatherDisplay:10.37,2013-01-10 20:02:00,
2013-01-10 14:07:00,42.1,11.3,30.18,SSE,168,20.0,20.0,28,0.00,OVC,BKN,0.00,0.0,WeatherDisplay:10.37,2013-01-10 20:07:00,
2013-01-10 14:12:00,42.1,12.1,30.17,SSW,194,19.6,19.6,29,0.00,OVC,BKN,0.00,0.0,WeatherDisplay:10.37,2013-01-10 20:12:00,
2013-01-10 14:17:00,41.9,11.1,30.17,SSE,159,9.2,9.2,28,0.00,OVC,BKN,0.00,0.0,WeatherDisplay:10.37,2013-01-10 20:17:00,
2013-01-10 14:23:00,41.9,11.9,30.17,SSW,199,17.3,17.3,29,0.01,RA,BKN,0.01,0.0,WeatherDisplay:10.37,2013-01-10 20:23:00,
2013-01-10 14:28:00,41.8,11.0,30.18,SSE,163,20.7,20.7,28,0.01,RA,BKN,0.01,0.0,WeatherDisplay:10.37,2013-01-10 20:28:00,
2013-01-10 14:33:00,41.6,12.4,30.18,South,173,13.8,13.8,30,0.01,OVC,BKN,0.01,0.0,WeatherDisplay:10.37,2013-01-10 20:33:00,
2013-01-10 14:38:00,41.8,10.2,30.18,SSW,196,19.6,19.6,27,0.01,OVC,BKN,0.01,0.0,WeatherDisplay:10.37,2013-01-10 20:38:00,
2013-01-10 14:43:00,41.8,11.0,30.17,SSE,165,19.6,19.6,28,0.01,OVC,BKN,0.01,0.0,WeatherDisplay:10.37,2013-01-10 20:43:00,
2013-01-10 14:48:00,41.8,11.8,30.17,SSE,165,19.6,19.6,29,0.01,OVC,BKN,0.01,0.0,WeatherDisplay:10.37,2013-01-10 20:48:00,
2013-01-10 14:53:00,41.8,11.8,30.17,South,185,16.1,16.1,29,0.01,OVC,BKN,0.01,0.0,WeatherDisplay:10.37,2013-01-10 20:53:00,
2013-01-10 14:58:00,41.5,12.3,30.17,SSE,168,16.1,16.1,30,0.02,RA,BKN,0.02,0.0,WeatherDisplay:10.37,2013-01-10 20:58:00,
2013-01-10 15:04:00,41.3,12.1,30.17,SSE,158,13.0,13.0,30,0.02,RA,BKN,0.02,0.0,WeatherDisplay:10.37,2013-01-10 21:04:00,
2013-01-10 15:09:00,41.3,12.9,30.17,South,172,10.4,10.4,31,0.02,CLR,BKN,0.02,0.0,WeatherDisplay:10.37,2013-01-10 21:09:00,
2013-01-10 15:14:00,41.3,13.6,30.17,SSE,163,11.0,11.0,32,0.02,CLR,BKN,0.02,0.0,WeatherDisplay:10.37,2013-01-10 21:14:00,
2013-01-10 15:19:00,41.2,14.2,30.17,SSE,150,10.0,10.0,33,0.02,CLR,BKN,0.02,0.0,WeatherDisplay:10.37,2013-01-10 21:19:00,
2013-01-10 15:24:00,41.2,14.9,30.16,SSE,161,12.7,12.7,34,0.01,CLR,BKN,0.02,0.0,WeatherDisplay:10.37,2013-01-10 21:24:00,
2013-01-10 15:29:00,41.1,14.8,30.16,SSE,164,12.0,12.0,34,0.01,CLR,BKN,0.02,0.0,WeatherDisplay:10.37,2013-01-10 21:29:00,
2013-01-10 15:34:00,40.9,14.6,30.16,South,169,17.3,17.3,34,0.01,CLR,BKN,0.02,0.0,WeatherDisplay:10.37,2013-01-10 21:34:00,
2013-01-10 15:40:00,40.8,15.2,30.16,SSE,163,8.0,21.0,35,0.00,RA,BKN,0.03,0.0,WeatherDisplay:10.37,2013-01-10 21:40:00,
2013-01-10 15:45:00,40.8,14.6,30.15,SE,133,16.1,16.1,34,0.02,RA,BKN,0.03,0.0,WeatherDisplay:10.37,2013-01-10 21:45:00,
2013-01-10 15:50:00,40.6,15.0,30.15,SSE,148,16.1,16.1,35,0.02,CLR,BKN,0.03,0.0,WeatherDisplay:10.37,2013-01-10 21:50:00,
2013-01-10 15:55:00,40.5,15.0,30.15,SSE,164,17.0,17.0,35,0.01,CLR,BKN,0.03,0.0,WeatherDisplay:10.37,2013-01-10 21:55:00,
2013-01-10 16:01:00,40.3,13.4,30.15,SSE,153,19.6,19.6,33,0.01,CLR,BKN,0.03,0.0,WeatherDisplay:10.37,2013-01-10 22:01:00,
2013-01-10 16:06:00,40.3,13.4,30.15,South,171,16.1,16.1,33,0.01,CLR,BKN,0.03,0.0,WeatherDisplay:10.37,2013-01-10 22:06:00,
2013-01-10 16:11:00,40.2,13.3,30.15,South,183,18.4,18.4,33,0.01,CLR,BKN,0.03,0.0,WeatherDisplay:10.37,2013-01-10 22:11:00,
2013-01-10 16:16:00,40.1,13.3,30.14,South,175,15.0,15.0,33,0.01,CLR,BKN,0.03,0.0,WeatherDisplay:10.37,2013-01-10 22:16:00,
2013-01-10 16:21:00,39.9,13.8,30.14,SSE,159,20.7,20.7,34,0.01,CLR,BKN,0.03,0.0,WeatherDisplay:10.37,2013-01-10 22:21:00,
2013-01-10 16:26:00,39.9,12.4,30.14,SSE,150,19.6,19.6,32,0.01,CLR,BKN,0.03,0.0,WeatherDisplay:10.37,2013-01-10 22:26:00,
2013-01-10 16:31:00,39.8,12.3,30.14,South,174,17.3,17.3,32,0.01,CLR,BKN,0.03,0.0,WeatherDisplay:10.37,2013-01-10 22:31:00,
2013-01-10 16:36:00,39.6,11.4,30.13,SSE,160,19.6,19.6,31,0.01,CLR,BKN,0.03,0.0,WeatherDisplay:10.37,2013-01-10 22:36:00,
2013-01-10 16:42:00,39.6,11.4,30.13,South,181,17.3,17.3,31,0.00,CLR,BKN,0.03,0.0,WeatherDisplay:10.37,2013-01-10 22:42:00,
2013-01-10 16:47:00,39.5,11.3,30.13,SSE,158,19.6,19.6,31,0.00,CLR,BKN,0.03,0.0,WeatherDisplay:10.37,2013-01-10 22:47:00,
2013-01-10 16:52:00,39.3,11.1,30.13,South,177,13.8,13.8,31,0.00,CLR,BKN,0.03,0.0,WeatherDisplay:10.37,2013-01-10 22:52:00,
2013-01-10 16:57:00,39.3,10.4,30.12,South,190,19.6,19.6,30,0.00,CLR,BKN,0.03,0.0,WeatherDisplay:10.37,2013-01-10 22:57:00,
2013-01-10 17:02:00,39.2,10.3,30.12,South,187,19.6,19.6,30,0.00,CLR,BKN,0.03,0.0,WeatherDisplay:10.37,2013-01-10 23:02:00,
2013-01-10 17:07:00,39.2,10.3,30.12,South,169,16.1,16.1,30,0.00,CLR,BKN,0.03,0.0,WeatherDisplay:10.37,2013-01-10 23:07:00,
2013-01-10 17:12:00,39.1,11.0,30.12,SE,146,17.3,17.3,31,0.00,CLR,BKN,0.03,0.0,WeatherDisplay:10.37,2013-01-10 23:12:00,
2013-01-10 17:18:00,39.1,10.2,30.11,SSE,148,12.0,12.0,30,0.00,CLR,BKN,0.03,0.0,WeatherDisplay:10.37,2013-01-10 23:18:00,
2013-01-10 17:23:00,38.9,10.1,30.10,SSE,159,12.0,12.0,30,0.00,CLR,BKN,0.03,0.0,WeatherDisplay:10.37,2013-01-10 23:23:00,
2013-01-10 17:28:00,38.8,10.7,30.10,SSE,156,13.8,13.8,31,0.00,CLR,BKN,0.03,0.0,WeatherDisplay:10.37,2013-01-10 23:28:00,
2013-01-10 17:33:00,38.6,9.8,30.09,SSE,156,17.0,17.0,30,0.00,CLR,BKN,0.03,0.0,WeatherDisplay:10.37,2013-01-10 23:33:00,
2013-01-10 17:38:00,38.5,10.4,30.09,SSE,153,15.0,15.0,31,0.00,CLR,BKN,0.03,0.0,WeatherDisplay:10.37,2013-01-10 23:38:00,
2013-01-10 17:43:00,38.5,10.4,30.09,SE,143,18.0,18.0,31,0.00,CLR,BKN,0.03,0.0,WeatherDisplay:10.37,2013-01-10 23:43:00,
2013-01-10 17:48:00,38.3,11.0,30.08,SE,141,16.0,16.0,32,0.00,CLR,BKN,0.03,0.0,WeatherDisplay:10.37,2013-01-10 23:48:00,
2013-01-10 17:53:00,38.3,12.3,30.08,SE,144,17.3,17.3,34,0.00,CLR,BKN,0.03,0.0,WeatherDisplay:10.37,2013-01-10 23:53:00,
2013-01-10 17:59:00,38.2,11.6,30.07,SE,139,19.6,19.6,33,0.00,CLR,BKN,0.03,0.0,WeatherDisplay:10.37,2013-01-10 23:59:00,
2013-01-10 18:04:00,38.2,12.9,30.07,SE,146,15.0,15.0,35,0.01,RA,BKN,0.04,0.0,WeatherDisplay:10.37,2013-01-11 00:04:00,
2013-01-10 18:09:00,38.0,14.0,30.07,SSE,148,21.9,21.9,37,0.01,RA,BKN,0.04,0.0,WeatherDisplay:10.37,2013-01-11 00:09:00,
2013-01-10 18:14:00,37.9,13.3,30.07,SE,142,19.6,19.6,36,0.01,CLR,BKN,0.04,0.0,WeatherDisplay:10.37,2013-01-11 00:14:00,
2013-01-10 18:19:00,37.9,14.5,30.06,SSE,151,17.3,17.3,38,0.01,CLR,BKN,0.04,0.0,WeatherDisplay:10.37,2013-01-11 00:19:00,
2013-01-10 18:24:00,37.8,13.8,30.06,South,169,11.5,11.5,37,0.01,CLR,BKN,0.04,0.0,WeatherDisplay:10.37,2013-01-11 00:24:00,
2013-01-10 18:29:00,37.8,13.2,30.05,SE,144,12.7,12.7,36,0.01,CLR,BKN,0.04,0.0,WeatherDisplay:10.37,2013-01-11 00:29:00,
2013-01-10 18:35:00,37.8,13.2,30.05,SSE,147,19.6,19.6,36,0.01,CLR,BKN,0.04,0.0,WeatherDisplay:10.37,2013-01-11 00:35:00,
2013-01-10 18:40:00,37.8,13.2,30.04,SE,143,9.0,20.0,36,0.00,CLR,BKN,0.04,0.0,WeatherDisplay:10.37,2013-01-11 00:40:00,
2013-01-10 18:45:00,37.8,13.2,30.03,SE,140,17.3,17.3,36,0.01,CLR,BKN,0.04,0.0,WeatherDisplay:10.37,2013-01-11 00:45:00,
2013-01-10 18:50:00,37.8,13.8,30.03,SSE,151,13.0,20.0,37,0.00,CLR,BKN,0.04,0.0,WeatherDisplay:10.37,2013-01-11 00:50:00,
2013-01-10 18:55:00,37.8,13.2,30.03,SE,146,16.0,16.0,36,0.01,CLR,BKN,0.04,0.0,WeatherDisplay:10.37,2013-01-11 00:55:00,
2013-01-10 19:00:00,37.8,13.2,30.03,SSE,158,20.7,20.7,36,0.01,CLR,BKN,0.04,0.0,WeatherDisplay:10.37,2013-01-11 01:00:00,
2013-01-10 19:05:00,37.8,13.2,30.03,SSE,163,19.6,19.6,36,0.00,CLR,BKN,0.04,0.0,WeatherDisplay:10.37,2013-01-11 01:05:00,
2013-01-10 19:10:00,37.9,13.3,30.02,SSE,152,18.4,18.4,36,0.00,CLR,BKN,0.04,0.0,WeatherDisplay:10.37,2013-01-11 01:10:00,
2013-01-10 19:15:00,37.9,13.9,30.02,SSE,152,19.6,19.6,37,0.00,CLR,BKN,0.04,0.0,WeatherDisplay:10.37,2013-01-11 01:15:00,
2013-01-10 19:20:00,37.9,13.3,30.02,SE,145,20.7,20.7,36,0.00,CLR,BKN,0.04,0.0,WeatherDisplay:10.37,2013-01-11 01:20:00,
2013-01-10 19:25:00,38.0,15.2,30.02,South,172,15.0,15.0,39,0.00,CLR,BKN,0.04,0.0,WeatherDisplay:10.37,2013-01-11 01:25:00,
2013-01-10 19:31:00,38.0,16.4,30.01,SE,133,11.5,11.5,41,0.00,CLR,BKN,0.04,0.0,WeatherDisplay:10.37,2013-01-11 01:31:00,
2013-01-10 19:36:00,37.9,16.8,30.01,SSE,155,12.0,12.0,42,0.00,CLR,BKN,0.04,0.0,WeatherDisplay:10.37,2013-01-11 01:36:00,
2013-01-10 19:41:00,37.8,17.8,30.01,SSE,152,11.5,11.5,44,0.00,CLR,BKN,0.04,0.0,WeatherDisplay:10.37,2013-01-11 01:41:00,
2013-01-10 19:46:00,37.6,18.2,30.01,South,181,17.0,17.0,45,0.00,CLR,BKN,0.04,0.0,WeatherDisplay:10.37,2013-01-11 01:46:00,
2013-01-10 19:51:00,37.5,19.1,30.00,SSE,165,12.7,12.7,47,0.00,CLR,BKN,0.04,0.0,WeatherDisplay:10.37,2013-01-11 01:51:00,
2013-01-10 19:56:00,37.3,18.9,30.00,ESE,113,17.3,17.3,47,0.00,CLR,BKN,0.04,0.0,WeatherDisplay:10.37,2013-01-11 01:56:00,
2013-01-10 20:01:00,37.0,19.1,30.00,SE,140,18.0,18.0,48,0.00,CLR,BKN,0.04,0.0,WeatherDisplay:10.37,2013-01-11 02:01:00,
2013-01-10 20:06:00,36.9,20.0,29.99,SSE,164,20.7,20.7,50,0.00,CLR,BKN,0.04,0.0,WeatherDisplay:10.37,2013-01-11 02:06:00,
2013-01-10 20:12:00,36.8,22.1,29.98,SE,138,17.3,17.3,55,0.00,CLR,BKN,0.04,0.0,WeatherDisplay:10.37,2013-01-11 02:12:00,
2013-01-10 20:17:00,36.5,23.9,29.98,SSE,168,16.0,16.0,60,0.00,CLR,BKN,0.04,0.0,WeatherDisplay:10.37,2013-01-11 02:17:00,
2013-01-10 20:22:00,36.0,24.6,29.97,SSE,154,21.9,21.9,63,0.00,CLR,BKN,0.04,0.0,WeatherDisplay:10.37,2013-01-11 02:22:00,
2013-01-10 20:27:00,35.5,26.0,29.96,SSE,159,14.0,14.0,68,0.00,CLR,BKN,0.04,0.0,WeatherDisplay:10.37,2013-01-11 02:27:00,
2013-01-10 20:32:00,35.0,26.2,29.95,SSE,148,11.5,11.5,70,0.00,CLR,BKN,0.04,0.0,WeatherDisplay:10.37,2013-01-11 02:32:00,
2013-01-10 20:37:00,34.6,26.5,29.95,SE,127,12.0,12.0,72,0.00,CLR,BKN,0.04,0.0,WeatherDisplay:10.37,2013-01-11 02:37:00,
2013-01-10 20:43:00,34.1,26.7,29.94,SE,131,11.5,11.5,74,0.00,CLR,BKN,0.04,0.0,WeatherDisplay:10.37,2013-01-11 02:43:00,
2013-01-10 20:48:00,33.7,26.3,29.93,SSE,157,16.1,16.1,74,0.00,CLR,BKN,0.04,0.0,WeatherDisplay:10.37,2013-01-11 02:48:00,
2013-01-10 20:53:00,33.5,26.7,29.93,SE,130,18.4,18.4,76,0.00,CLR,BKN,0.04,0.0,WeatherDisplay:10.37,2013-01-11 02:53:00,
2013-01-10 20:58:00,33.4,27.3,29.92,SE,134,12.7,12.7,78,0.00,CLR,BKN,0.04,0.0,WeatherDisplay:10.37,2013-01-11 02:58:00,
2013-01-10 21:03:00,33.2,27.4,29.92,SSE,154,19.6,19.6,79,0.00,CLR,BKN,0.04,0.0,WeatherDisplay:10.37,2013-01-11 03:03:00,
2013-01-10 21:08:00,33.1,27.6,29.91,SE,139,17.0,17.0,80,0.00,CLR,BKN,0.04,0.0,WeatherDisplay:10.37,2013-01-11 03:08:00,
2013-01-10 21:13:00,32.9,28.3,29.91,South,175,13.8,13.8,83,0.00,CLR,BKN,0.04,0.0,WeatherDisplay:10.37,2013-01-11 03:13:00,
2013-01-10 21:18:00,32.9,28.6,29.91,SE,133,19.6,19.6,84,0.01,RA,BKN,0.05,0.0,WeatherDisplay:10.37,2013-01-11 03:18:00,
2013-01-10 21:23:00,32.8,29.1,29.90,SSE,156,11.5,11.5,86,0.01,RA,BKN,0.05,0.0,WeatherDisplay:10.37,2013-01-11 03:23:00,
2013-01-10 21:29:00,32.8,29.4,29.90,South,180,13.8,13.8,87,0.01,CLR,BKN,0.05,0.0,WeatherDisplay:10.37,2013-01-11 03:29:00,
2013-01-10 21:34:00,32.8,29.6,29.90,SSE,150,13.8,13.8,88,0.02,RA,BKN,0.06,0.0,WeatherDisplay:10.37,2013-01-11 03:34:00,
2013-01-10 21:39:00,32.8,29.9,29.90,South,169,17.3,17.3,89,0.02,RA,BKN,0.06,0.0,WeatherDisplay:10.37,2013-01-11 03:39:00,
2013-01-10 21:44:00,32.7,29.8,29.89,SE,135,15.0,15.0,89,0.03,RA,BKN,0.07,0.0,WeatherDisplay:10.37,2013-01-11 03:44:00,
2013-01-10 21:49:00,32.7,30.1,29.88,SSE,150,15.0,15.0,90,0.03,RA,BKN,0.07,0.0,WeatherDisplay:10.37,2013-01-11 03:49:00,
2013-01-10 21:54:00,32.7,30.1,29.88,SSE,154,13.8,13.8,90,0.04,RA,BKN,0.08,0.0,WeatherDisplay:10.37,2013-01-11 03:54:00,
2013-01-10 21:59:00,32.8,30.5,29.87,SSE,151,15.0,15.0,91,0.04,RA,BKN,0.08,0.0,WeatherDisplay:10.37,2013-01-11 03:59:00,
2013-01-10 22:05:00,32.8,30.5,29.85,SSE,147,11.5,11.5,91,0.05,RA,BKN,0.09,0.0,WeatherDisplay:10.37,2013-01-11 04:05:00,
2013-01-10 22:10:00,32.8,30.7,29.85,SE,141,10.0,20.0,92,0.00,RA,BKN,0.09,0.0,WeatherDisplay:10.37,2013-01-11 04:10:00,
2013-01-10 22:15:00,32.8,30.7,29.85,SSE,150,12.7,12.7,92,0.05,CLR,BKN,0.10,0.0,WeatherDisplay:10.37,2013-01-11 04:15:00,
2013-01-10 22:20:00,32.8,30.7,29.85,SSE,160,14.0,20.0,92,0.00,RA,BKN,0.10,0.0,WeatherDisplay:10.37,2013-01-11 04:20:00,
2013-01-10 22:25:00,32.8,31.0,29.85,SSE,158,13.8,13.8,93,0.05,RA,BKN,0.10,0.0,WeatherDisplay:10.37,2013-01-11 04:25:00,
2013-01-10 22:30:00,32.8,31.0,29.85,SSE,156,12.7,12.7,93,0.05,RA,BKN,0.11,0.0,WeatherDisplay:10.37,2013-01-11 04:30:00,
2013-01-10 22:35:00,32.8,31.0,29.86,SSE,166,15.0,15.0,93,0.06,RA,BKN,0.12,0.0,WeatherDisplay:10.37,2013-01-11 04:35:00,
2013-01-10 22:40:00,32.9,31.1,29.85,SSE,163,19.6,19.6,93,0.07,RA,BKN,0.13,0.0,WeatherDisplay:10.37,2013-01-11 04:40:00,
2013-01-10 22:45:00,32.9,31.1,29.84,SSE,162,15.0,15.0,93,0.07,RA,BKN,0.14,0.0,WeatherDisplay:10.37,2013-01-11 04:45:00,
2013-01-10 22:50:00,32.9,31.6,29.83,SE,140,15.0,15.0,95,0.07,RA,BKN,0.14,0.0,WeatherDisplay:10.37,2013-01-11 04:50:00,
2013-01-10 22:55:00,32.9,31.4,29.83,SSE,148,16.1,16.1,94,0.07,RA,BKN,0.15,0.0,WeatherDisplay:10.37,2013-01-11 04:55:00,
2013-01-10 23:00:00,33.1,31.6,29.83,South,177,20.7,20.7,94,0.07,RA,BKN,0.15,0.0,WeatherDisplay:10.37,2013-01-11 05:00:00,
2013-01-10 23:03:00,33.1,31.6,29.82,SSE,150,17.3,17.3,94,0.06,CLR,BKN,0.15,0.0,WeatherDisplay:10.37,2013-01-11 05:03:00,
2013-01-10 23:08:00,33.1,31.6,29.82,SSE,147,20.7,20.7,94,0.07,RA,BKN,0.16,0.0,WeatherDisplay:10.37,2013-01-11 05:08:00,
2013-01-10 23:13:00,33.1,31.6,29.82,SSE,160,15.0,15.0,94,0.07,RA,BKN,0.16,0.0,WeatherDisplay:10.37,2013-01-11 05:13:00,
2013-01-10 23:18:00,33.1,31.8,29.82,SSE,163,12.7,12.7,95,0.06,CLR,BKN,0.16,0.0,WeatherDisplay:10.37,2013-01-11 05:18:00,
2013-01-10 23:24:00,33.2,31.9,29.82,SSE,160,13.8,13.8,95,0.06,CLR,BKN,0.16,0.0,WeatherDisplay:10.37,2013-01-11 05:24:00,
2013-01-10 23:29:00,33.2,31.9,29.81,SSE,149,16.1,16.1,95,0.05,CLR,BKN,0.16,0.0,WeatherDisplay:10.37,2013-01-11 05:29:00,
2013-01-10 23:34:00,33.4,32.1,29.80,SE,136,18.0,18.0,95,0.04,CLR,BKN,0.16,0.0,WeatherDisplay:10.37,2013-01-11 05:34:00,
2013-01-10 23:39:00,33.5,32.2,29.80,SSE,167,17.3,17.3,95,0.04,RA,BKN,0.17,0.0,WeatherDisplay:10.37,2013-01-11 05:39:00,
2013-01-10 23:44:00,33.5,32.5,29.79,South,178,22.0,22.0,96,0.04,RA,BKN,0.17,0.0,WeatherDisplay:10.37,2013-01-11 05:44:00,
2013-01-10 23:49:00,33.7,32.7,29.80,SSE,160,16.1,16.1,96,0.03,CLR,BKN,0.17,0.0,WeatherDisplay:10.37,2013-01-11 05:49:00,
2013-01-10 23:54:00,33.7,32.7,29.80,South,171,24.2,24.2,96,0.02,CLR,BKN,0.17,0.0,WeatherDisplay:10.37,2013-01-11 05:54:00,
2013-01-10 23:59:00,33.8,32.8,29.79,SSE,153,20.0,29.0,96,0.00,CLR,BKN,0.17,0.0,WeatherDisplay:10.37,2013-01-11 05:59:00,